Terug naar catalogus

COSMOS 2251 DEB

ActiefLEO
NORAD 34813·DEBRIS·🇷🇺 Russia

Gelanceerd Jun 16, 1993 vanaf Plesetsk Cosmodrome

Loading…

Volgende Passages (komende 24 uur)

TLE

VersSource: Space-Track

Epoch: Sep 13, 2026, 11:28 UTC

1 34813U 93036ABC 26256.47785943  .00001306  00000-0  10710-2 0  9999
2 34813  73.9248  50.8611 0448623  33.4389 329.4203 13.51995646853662

Volg COSMOS 2251 DEB in realtime met AllMySat

Download on the App Store